CW5917 Weather Reports


Display with metric or nautical units.
time (UTC)temp
F
wind
direction
speed
MPH
gust
MPH
rain 1hr
in
rain 24hr
in
rain mn
in
humidity
%
barometer
mb
20260508142540 60 173 8.0 10.0 0.00 0.00 0.00 35 1010.7
20260508142018 60 167 5.0 10.0 0.00 0.00 0.00 40 1010.7
20260508141534 59 209 5.0 11.0 0.00 0.00 0.00 39 1010.7
20260508141041 59 161 6.0 9.0 0.00 0.00 0.00 39 1010.6
20260508140535 59 180 4.0 9.0 0.00 0.00 0.00 41 1010.5
20260508140022 58 167 4.0 10.0 0.00 0.00 0.00 41 1010.4
20260508135537 57 180 5.0 11.0 0.00 0.00 0.00 45 1010.5
20260508135017 56 177 7.0 10.0 0.00 0.00 0.00 45 1010.5
20260508134536 56 177 7.0 9.0 0.00 0.00 0.00 51 1010.7
20260508134024 55 178 5.0 7.0 0.00 0.00 0.00 57 1010.7
20260508133520 54 168 2.0 7.0 0.00 0.00 0.00 59 1010.6
20260508133036 53 182 4.0 7.0 0.00 0.00 0.00 62 1010.7
20260508132527 52 220 5.0 10.0 0.00 0.00 0.00 62 1010.7
20260508132042 52 197 5.0 10.0 0.00 0.00 0.00 63 1010.8
20260508131529 51 175 7.0 10.0 0.00 0.00 0.00 64 1010.8
20260508131023 50 168 6.0 9.0 0.00 0.00 0.00 66 1010.9
20260508130535 49 184 7.0 9.0 0.00 0.00 0.00 70 1011.0
20260508130057 48 182 5.0 8.0 0.00 0.00 0.00 73 1011.0
20260508125531 47 225 4.0 6.0 0.00 0.00 0.00 75 1011.1
20260508125023 46 202 3.0 8.0 0.00 0.00 0.00 78 1011.1
20260508124518 45 205 5.0 8.0 0.00 0.00 0.00 81 1011.0
20260508124030 43 186 5.0 8.0 0.00 0.00 0.00 85 1010.9
20260508123517 42 202 4.0 6.0 0.00 0.00 0.00 88 1011.0
20260508123034 41 185 3.0 6.0 0.00 0.00 0.00 89 1011.0
20260508122557 39 142 1.0 3.0 0.00 0.00 0.00 88 1011.0
20260508122023 38 22 0.0 1.0 0.00 0.00 0.00 88 1010.8
20260508121545 37 22 0.0 0.0 0.00 0.00 0.00 87 1010.8
20260508120558 35 22 0.0 0.0 0.00 0.00 0.00 86 1010.9
20260508120018 34 22 0.0 0.0 0.00 0.00 0.00 85 1010.9
20260508115526 34 22 0.0 0.0 0.00 0.00 0.00 85 1010.9
20260508115022 34 22 0.0 0.0 0.00 0.00 0.00 84 1011.0
20260508114528 33 22 0.0 0.0 0.00 0.00 0.00 84 1010.8
20260508114021 32 22 0.0 0.0 0.00 0.00 0.00 83 1010.7
20260508113520 32 22 0.0 0.0 0.00 0.00 0.00 82 1010.8
20260508113058 32 22 0.0 0.0 0.00 0.00 0.00 81 1010.7
20260508112523 32 22 0.0 0.0 0.00 0.00 0.00 81 1010.7
20260508112035 32 22 0.0 0.0 0.00 0.00 0.00 80 1010.7
20260508111536 32 22 0.0 0.0 0.00 0.00 0.00 80 1010.7
20260508111030 32 22 0.0 2.0 0.00 0.00 0.00 79 1010.7
20260508110526 32 22 1.0 2.0 0.00 0.00 0.00 79 1010.6
20260508110022 32 22 0.0 1.0 0.00 0.00 0.00 79 1010.7
20260508105517 32 22 0.0 0.0 0.00 0.00 0.00 79 1010.7
20260508105036 32 22 0.0 0.0 0.00 0.00 0.00 78 1010.6
20260508104555 32 22 0.0 0.0 0.00 0.00 0.00 78 1010.7
20260508104029 32 22 0.0 0.0 0.00 0.00 0.00 78 1010.7
20260508103525 32 22 0.0 0.0 0.00 0.00 0.00 78 1010.7
20260508103035 32 22 0.0 0.0 0.00 0.00 0.00 78 1010.7
20260508102544 32 22 0.0 0.0 0.00 0.00 0.00 78 1010.9
20260508102047 33 22 0.0 0.0 0.00 0.00 0.00 78 1010.8
20260508101531 33 22 0.0 0.0 0.00 0.00 0.00 77 1010.7
20260508101027 33 22 0.0 0.0 0.00 0.00 0.00 77 1010.7
20260508100519 33 22 0.0 0.0 0.00 0.00 0.00 77 1010.8
20260508100033 33 22 0.0 0.0 0.00 0.00 0.00 77 1010.9
20260508095520 33 22 0.0 0.0 0.00 0.00 0.00 77 1011.0
20260508095022 33 22 0.0 1.0 0.00 0.00 0.00 76 1011.0
20260508094523 33 22 0.0 1.0 0.00 0.00 0.00 76 1011.0
20260508094031 33 22 0.0 0.0 0.00 0.00 0.00 76 1011.0
20260508093537 33 22 0.0 0.0 0.00 0.00 0.00 75 1011.1
20260508093026 34 22 0.0 1.0 0.00 0.00 0.00 75 1011.0
20260508092523 34 22 0.0 1.0 0.00 0.00 0.00 74 1011.1
20260508092017 34 22 0.0 1.0 0.00 0.00 0.00 74 1011.1
20260508091537 34 22 0.0 2.0 0.00 0.00 0.00 74 1011.1
20260508091033 34 22 0.0 2.0 0.00 0.00 0.00 73 1011.0
20260508090521 34 22 0.0 0.0 0.00 0.00 0.00 73 1011.1
20260508090022 34 22 0.0 0.0 0.00 0.00 0.00 73 1011.0
20260508085521 35 22 0.0 0.0 0.00 0.00 0.00 73 1011.1
20260508085101 35 22 0.0 0.0 0.00 0.00 0.00 73 1011.2
20260508084538 35 22 0.0 2.0 0.00 0.00 0.00 72 1011.2
20260508084020 35 22 1.0 2.0 0.00 0.00 0.00 72 1011.3
20260508083533 35 22 0.0 2.0 0.00 0.00 0.00 71 1011.3
20260508083047 35 22 1.0 2.0 0.00 0.00 0.00 70 1011.4
20260508082519 35 22 0.0 1.0 0.00 0.00 0.00 70 1011.3
20260508082029 36 22 0.0 0.0 0.00 0.00 0.00 70 1011.3
20260508081524 36 22 0.0 0.0 0.00 0.00 0.00 69 1011.4
20260508081022 36 22 0.0 0.0 0.00 0.00 0.00 68 1011.4
20260508080520 36 22 0.0 0.0 0.00 0.00 0.00 68 1011.4
20260508080036 36 22 0.0 0.0 0.00 0.00 0.00 67 1011.5
20260508075549 37 22 0.0 0.0 0.00 0.00 0.00 68 1011.4
20260508075023 37 22 0.0 0.0 0.00 0.00 0.00 67 1011.5
20260508074559 37 22 0.0 2.0 0.00 0.00 0.00 67 1011.6
20260508074053 37 22 0.0 2.0 0.00 0.00 0.00 67 1011.7
20260508073528 38 22 0.0 1.0 0.00 0.00 0.00 67 1011.7
20260508073032 38 22 0.0 2.0 0.00 0.00 0.00 67 1011.8
20260508072521 38 22 0.0 3.0 0.00 0.00 0.00 66 1011.8
20260508072023 38 22 2.0 3.0 0.00 0.00 0.00 66 1011.7
20260508071523 38 22 2.0 3.0 0.00 0.00 0.00 64 1011.7
20260508071051 39 22 0.0 0.0 0.00 0.00 0.00 63 1011.7
20260508070519 39 22 0.0 0.0 0.00 0.00 0.00 63 1011.7
20260508070035 39 22 0.0 1.0 0.00 0.00 0.00 63 1011.7
20260508065542 40 22 0.0 1.0 0.00 0.00 0.00 63 1011.7
20260508065032 40 22 0.0 2.0 0.00 0.00 0.00 61 1011.8
20260508064525 40 22 2.0 2.0 0.00 0.00 0.00 61 1011.7
20260508064031 40 22 0.0 3.0 0.00 0.00 0.00 61 1011.7
20260508063522 41 22 1.0 3.0 0.00 0.00 0.00 61 1011.6
20260508063112 41 22 0.0 2.0 0.00 0.00 0.00 60 1011.6
20260508062600 41 22 1.0 2.0 0.00 0.00 0.00 60 1011.6
20260508062019 41 22 2.0 2.0 0.00 0.00 0.00 59 1011.7
20260508061517 41 22 0.0 3.0 0.00 0.00 0.00 59 1011.9
20260508061029 42 22 2.0 4.0 0.00 0.00 0.00 58 1012.0
20260508060534 42 22 3.0 4.0 0.00 0.00 0.00 57 1012.1
20260508060033 43 22 2.0 4.0 0.00 0.00 0.00 54 1012.1
20260508055526 43 22 0.0 1.0 0.00 0.00 0.00 52 1012.0
20260508055020 43 22 0.0 2.0 0.00 0.00 0.00 53 1012.0
20260508054526 44 22 0.0 1.0 0.00 0.00 0.00 52 1012.0
20260508054037 44 22 0.0 1.0 0.00 0.00 0.00 51 1012.1
20260508053531 44 22 0.0 1.0 0.00 0.00 0.00 50 1012.2
20260508053020 45 22 0.0 1.0 0.00 0.00 0.00 50 1012.1
20260508052532 45 22 0.0 1.0 0.00 0.00 0.00 50 1012.1
20260508052022 45 22 0.0 3.0 0.00 0.00 0.00 50 1012.2
20260508051535 45 22 0.0 3.0 0.00 0.00 0.00 50 1012.2
20260508051031 45 22 1.0 3.0 0.00 0.00 0.00 51 1012.2
20260508050548 45 22 2.0 4.0 0.00 0.00 0.00 51 1012.2
20260508050038 45 22 2.0 4.0 0.00 0.00 0.00 51 1012.2
20260508045544 45 23 3.0 5.0 0.00 0.00 0.00 51 1012.1
20260508045037 45 16 3.0 7.0 0.00 0.00 0.00 51 1012.2
20260508044523 45 13 3.0 6.0 0.00 0.00 0.00 52 1012.2
20260508044030 45 5 3.0 8.0 0.00 0.00 0.00 52 1012.2
20260508043523 45 5 4.0 8.0 0.00 0.00 0.00 53 1012.2
20260508043027 45 329 3.0 4.0 0.00 0.00 0.00 53 1012.2
20260508042523 45 329 1.0 5.0 0.00 0.00 0.00 53 1012.2
20260508042019 45 329 2.0 5.0 0.00 0.00 0.00 53 1012.2
20260508041527 45 329 3.0 5.0 0.00 0.00 0.00 53 1012.1
20260508041034 45 355 2.0 4.0 0.00 0.00 0.00 53 1012.1
20260508040538 46 344 2.0 3.0 0.00 0.00 0.00 52 1012.1
20260508040033 46 339 2.0 3.0 0.00 0.00 0.00 51 1012.1
20260508035540 46 339 1.0 3.0 0.00 0.00 0.00 51 1012.1
20260508035036 46 339 1.0 2.0 0.00 0.00 0.00 51 1012.1
20260508034621 46 339 1.0 3.0 0.00 0.00 0.00 52 1012.1
20260508033024 46 338 2.0 5.0 0.00 0.00 0.00 53 1011.8
20260508032538 46 335 2.0 5.0 0.00 0.00 0.00 53 1011.7
20260508032029 46 342 3.0 4.0 0.00 0.00 0.00 52 1011.6
20260508031530 46 346 2.0 4.0 0.00 0.00 0.00 51 1011.5
20260508031018 46 336 2.0 4.0 0.00 0.00 0.00 50 1011.5
20260508030521 46 315 2.0 5.0 0.00 0.00 0.00 50 1011.5
20260508030053 47 320 3.0 5.0 0.00 0.00 0.00 49 1011.4
20260508025527 47 323 2.0 4.0 0.00 0.00 0.00 48 1011.4
20260508025022 47 306 1.0 3.0 0.00 0.00 0.00 47 1011.3
20260508024520 47 306 2.0 3.0 0.00 0.00 0.00 47 1011.2
20260508024032 48 306 1.0 2.0 0.00 0.00 0.00 47 1011.2
20260508023519 48 306 1.0 2.0 0.00 0.00 0.00 47 1011.1
20260508023051 48 306 1.0 3.0 0.00 0.00 0.00 47 1011.1
20260508022524 49 306 1.0 3.0 0.00 0.00 0.00 46 1010.9
20260508022104 49 306 2.0 2.0 0.00 0.00 0.00 43 1010.8
20260508021521 49 306 0.0 2.0 0.00 0.00 0.00 43 1010.8
20260508021023 50 306 1.0 2.0 0.00 0.00 0.00 42 1010.6
20260508020518 50 306 0.0 1.0 0.00 0.00 0.00 41 1010.6
20260508020024 51 306 0.0 1.0 0.00 0.00 0.00 40 1010.6
20260508015523 51 306 0.0 1.0 0.00 0.00 0.00 40 1010.5
20260508015035 52 306 0.0 0.0 0.00 0.00 0.00 39 1010.5
20260508014533 52 306 0.0 0.0 0.00 0.00 0.00 39 1010.4
20260508014017 53 306 0.0 1.0 0.00 0.00 0.00 38 1010.3
20260508013533 53 306 0.0 1.0 0.00 0.00 0.00 37 1010.1
20260508013030 54 306 1.0 2.0 0.00 0.00 0.00 37 1010.1
20260508012525 54 306 1.0 2.0 0.00 0.00 0.00 36 1010.0
20260508012036 55 306 1.0 3.0 0.00 0.00 0.00 36 1010.0
20260508011527 55 306 2.0 3.0 0.00 0.00 0.00 36 1010.0
20260508011018 56 306 1.0 3.0 0.00 0.00 0.00 35 1010.0
20260508010554 56 306 2.0 4.0 0.00 0.00 0.00 35 1009.9
20260508010018 56 306 2.0 5.0 0.00 0.00 0.00 35 1009.8
20260508005517 57 306 3.0 5.0 0.00 0.00 0.00 34 1009.9
20260508005300 57 302 3.0 6.0 0.00 0.00 0.00 34 1009.8
20260508004532 57 301 3.0 8.0 0.00 0.00 0.00 33 1009.8
20260508004044 57 286 4.0 13.0 0.00 0.00 0.00 33 1009.8
20260508003547 57 296 8.0 14.0 0.00 0.00 0.00 32 1009.8
20260508003059 57 309 9.0 14.0 0.00 0.00 0.00 32 1009.8
20260508002545 58 313 7.0 14.0 0.00 0.00 0.00 32 1009.7
20260508002034 58 291 10.0 14.0 0.00 0.00 0.00 32 1009.7
20260508001532 58 317 7.0 14.0 0.00 0.00 0.00 32 1009.6
20260508001026 59 309 7.0 17.0 0.00 0.00 0.00 32 1009.6
20260508000520 59 303 12.0 17.0 0.00 0.00 0.00 32 1009.7
20260508000024 59 323 5.0 14.0 0.00 0.00 0.00 33 1009.5
20260507235520 60 317 8.0 15.0 0.00 0.00 0.00 32 1009.5
20260507235018 60 271 10.0 18.0 0.00 0.00 0.00 31 1009.5
20260507234517 60 298 10.0 18.0 0.00 0.00 0.00 31 1009.5
20260507234031 60 268 7.0 19.0 0.00 0.00 0.00 31 1009.4
20260507233541 60 304 13.0 19.0 0.00 0.00 0.00 31 1009.3
20260507233026 60 333 8.0 13.0 0.00 0.00 0.00 32 1009.4
20260507232541 61 314 9.0 18.0 0.00 0.00 0.00 31 1009.5
20260507232024 61 283 11.0 18.0 0.00 0.00 0.00 30 1009.4
20260507231521 61 304 9.0 19.0 0.00 0.00 0.00 30 1009.5
20260507231029 61 319 13.0 20.0 0.00 0.00 0.00 30 1009.5
20260507230526 61 311 11.0 20.0 0.00 0.00 0.00 29 1009.4
20260507230026 62 300 12.0 20.0 0.00 0.00 0.00 30 1009.4
20260507225525 62 286 12.0 19.0 0.00 0.00 0.00 31 1009.3
20260507225019 62 302 12.0 19.0 0.00 0.00 0.00 32 1009.4
20260507224534 62 323 9.0 15.0 0.00 0.00 0.00 33 1009.5
20260507224037 62 304 9.0 15.0 0.00 0.00 0.00 32 1009.4
20260507223537 62 322 9.0 17.0 0.00 0.00 0.00 32 1009.5
20260507223025 62 305 9.0 17.0 0.00 0.00 0.00 34 1009.5
20260507222523 62 325 8.0 21.0 0.00 0.00 0.00 33 1009.4
20260507222036 62 323 10.0 22.0 0.00 0.00 0.00 31 1009.4
20260507221520 62 296 14.0 22.0 0.00 0.00 0.00 32 1009.3
20260507221032 62 310 10.0 16.0 0.00 0.00 0.00 33 1009.4
20260507220537 62 307 7.0 13.0 0.00 0.00 0.00 34 1009.4
20260507220017 61 291 8.0 21.0 0.00 0.00 0.00 35 1009.4
20260507215530 61 330 14.0 21.0 0.00 0.00 0.00 36 1009.4
20260507215024 60 302 9.0 16.0 0.00 0.00 0.00 36 1009.3
20260507214529 60 286 9.0 22.0 0.00 0.00 0.00 37 1009.5
20260507214023 60 314 16.0 22.0 0.00 0.00 0.00 35 1009.4
20260507213519 61 321 8.0 15.0 0.00 0.00 0.00 36 1009.5
20260507213036 62 250 11.0 15.0 0.00 0.00 0.00 36 1009.4
20260507212550 61 292 5.0 14.0 0.00 0.00 0.00 37 1009.5
20260507212019 62 317 10.0 15.0 0.00 0.00 0.00 36 1009.5
20260507211539 62 301 10.0 20.0 0.00 0.00 0.00 36 1009.6
20260507211034 63 302 12.0 20.0 0.00 0.00 0.00 36 1009.5
20260507210527 62 301 8.0 15.0 0.00 0.00 0.00 40 1009.4
20260507210018 60 232 8.0 18.0 0.00 0.00 0.00 37 1009.5
20260507205527 61 263 13.0 20.0 0.00 0.00 0.00 35 1009.5
20260507205130 60 290 11.0 20.0 0.00 0.00 0.00 39 1009.6
20260507204651 60 309 11.0 19.0 0.00 0.00 0.00 37 1009.6
20260507204022 60 306 12.0 19.0 0.00 0.00 0.00 35 1009.6
20260507203529 62 322 11.0 19.0 0.00 0.00 0.00 35 1009.6
20260507203035 62 305 14.0 20.0 0.00 0.00 0.00 36 1009.6
20260507202525 62 320 11.0 18.0 0.00 0.00 0.00 37 1009.6
20260507202041 62 302 8.0 15.0 0.00 0.00 0.00 38 1009.6
20260507201540 62 305 10.0 18.0 0.00 0.00 0.00 39 1009.6
20260507201034 61 306 11.0 21.0 0.00 0.00 0.00 39 1009.8
20260507200517 61 296 11.0 26.0 0.00 0.00 0.00 37 1009.8
20260507200018 61 285 18.0 26.0 0.00 0.00 0.00 37 1009.9
20260507195535 61 280 12.0 18.0 0.00 0.00 0.00 35 1010.0
20260507195051 62 279 9.0 18.0 0.00 0.00 0.00 36 1010.0
20260507194530 62 302 11.0 17.0 0.00 0.00 0.00 36 1010.1
20260507194020 62 252 9.0 20.0 0.00 0.00 0.00 38 1010.1
20260507193534 62 317 8.0 20.0 0.00 0.00 0.00 39 1010.1
20260507193029 61 263 12.0 20.0 0.00 0.00 0.00 39 1010.2
20260507192543 61 286 9.0 16.0 0.00 0.00 0.00 40 1010.3
20260507192039 59 308 9.0 14.0 0.00 0.00 0.00 42 1010.2
20260507191517 58 280 10.0 21.0 0.00 0.00 0.00 43 1010.3
20260507191028 58 263 11.0 24.0 0.00 0.00 0.00 41 1010.3
20260507190517 58 311 12.0 24.0 0.00 0.00 0.00 41 1010.4
20260507190021 59 315 7.0 20.0 0.00 0.00 0.00 37 1010.4
20260507185535 59 250 12.0 20.0 0.00 0.00 0.00 38 1010.4
20260507184532 60 218 3.0 11.0 0.00 0.00 0.00 39 1010.2
20260507184028 59 250 5.0 9.0 0.00 0.00 0.00 41 1010.2
20260507183521 57 296 4.0 11.0 0.00 0.00 0.00 41 1010.4
20260507183036 57 360 7.0 11.0 0.00 0.00 0.00 40 1010.4
20260507182529 57 298 7.0 17.0 0.00 0.00 0.00 42 1010.5
20260507182031 57 351 10.0 17.0 0.00 0.00 0.00 40 1010.6
20260507181517 57 234 9.0 17.0 0.00 0.00 0.00 39 1010.7
20260507181110 58 238 9.0 16.0 0.00 0.00 0.00 38 1010.6
20260507180549 58 271 5.0 10.0 0.00 0.00 0.00 38 1010.6
20260507180037 59 256 4.0 16.0 0.00 0.00 0.00 37 1010.6
20260507175540 59 217 11.0 16.0 0.00 0.00 0.00 37 1010.5
20260507175020 58 240 6.0 24.0 0.00 0.00 0.00 42 1010.6
20260507174534 57 211 12.0 24.0 0.00 0.00 0.00 46 1010.9
20260507174019 57 253 5.0 16.0 0.00 0.00 0.00 38 1011.0
20260507173552 58 308 10.0 16.0 0.00 0.00 0.00 37 1011.0
20260507173019 58 253 8.0 19.0 0.00 0.00 0.00 38 1011.1
20260507172534 59 262 12.0 19.0 0.00 0.00 0.00 36 1011.1
20260507172017 59 215 7.0 16.0 0.00 0.00 0.00 40 1011.3
20260507171523 59 236 9.0 17.0 0.00 0.00 0.00 38 1011.7
20260507171025 60 266 14.0 17.0 0.00 0.00 0.00 37 1011.8
20260507170617 59 212 10.0 14.0 0.00 0.00 0.00 39 1011.9
20260507170035 59 182 8.0 17.0 0.00 0.00 0.00 40 1011.9
20260507165533 59 216 10.0 16.0 0.00 0.00 0.00 38 1012.0
20260507165037 59 227 13.0 16.0 0.00 0.00 0.00 38 1011.9
20260507164533 59 223 12.0 17.0 0.00 0.00 0.00 40 1012.0
20260507164024 59 232 7.0 14.0 0.00 0.00 0.00 42 1012.1
20260507163535 59 169 7.0 19.0 0.00 0.00 0.00 41 1012.3
20260507163033 58 167 7.0 19.0 0.00 0.00 0.00 42 1012.3
20260507162532 58 236 2.0 8.0 0.00 0.00 0.00 40 1012.3
20260507162022 57 183 4.0 11.0 0.00 0.00 0.00 45 1012.3
20260507161518 56 227 8.0 11.0 0.00 0.00 0.00 43 1012.4
20260507161029 57 198 6.0 12.0 0.00 0.00 0.00 41 1012.4
20260507160517 56 169 7.0 10.0 0.00 0.00 0.00 43 1012.5
20260507160024 56 207 5.0 12.0 0.00 0.00 0.00 42 1012.6
20260507155522 56 255 6.0 12.0 0.00 0.00 0.00 43 1012.7
20260507155019 56 225 4.0 8.0 0.00 0.00 0.00 45 1012.7
20260507154536 56 227 4.0 9.0 0.00 0.00 0.00 45 1012.7
20260507154046 55 179 5.0 9.0 0.00 0.00 0.00 47 1012.8
20260507153541 55 219 5.0 14.0 0.00 0.00 0.00 48 1012.8
20260507153021 54 163 7.0 14.0 0.00 0.00 0.00 45 1012.9
20260507152538 55 214 4.0 11.0 0.00 0.00 0.00 46 1013.0
20260507152023 54 209 6.0 11.0 0.00 0.00 0.00 44 1013.0
20260507151556 54 104 7.0 11.0 0.00 0.00 0.00 47 1013.1
20260507151027 54 172 5.0 11.0 0.00 0.00 0.00 47 1013.1
20260507150546 53 125 4.0 11.0 0.00 0.00 0.00 47 1013.3
20260507150037 53 158 6.0 11.0 0.00 0.00 0.00 47 1013.3
20260507145519 52 186 5.0 10.0 0.00 0.00 0.00 46 1013.3
20260507145035 52 186 5.0 9.0 0.00 0.00 0.00 48 1013.4
20260507144531 51 173 2.0 7.0 0.00 0.00 0.00 50 1013.5
20260507144028 50 106 2.0 9.0 0.00 0.00 0.00 51 1013.7
20260507143520 50 230 4.0 9.0 0.00 0.00 0.00 45 1013.9
20260507143038 51 184 5.0 8.0 0.00 0.00 0.00 47 1014.0